EW5622 Weather Reports


Display with metric or nautical units.
time (UTC)temp
F
wind
direction
speed
MPH
gust
MPH
rain 1hr
in
rain 24hr
in
rain mn
in
humidity
%
barometer
mb
20260831231114 63 0 0.0 0.0 0.00 0.00 0.00 93 1021.1
20260831230215 63 0 0.0 0.0 0.00 0.00 0.00 93 1021.1
20260831225613 63 0 0.0 0.0 0.00 0.00 0.00 93 1021.1
20260831224503 63 0 0.0 0.0 0.00 0.00 0.00 93 1021.1
20260831223603 63 0 0.0 0.0 0.00 0.00 0.00 92 1021.1
20260831222703 63 0 0.0 0.0 0.00 0.00 0.00 92 1021.1
20260831221803 64 0 0.0 0.0 0.00 0.00 0.00 92 1021.1
20260831220903 64 0 0.0 0.0 0.00 0.00 0.00 91 1021.1
20260831220004 64 0 0.0 0.0 0.00 0.00 0.00 91 1021.1
20260831215404 64 0 0.0 0.0 0.00 0.00 0.00 91 1021.1
20260831214503 64 0 0.0 0.0 0.00 0.00 0.00 91 1021.1
20260831213603 64 0 0.0 0.0 0.00 0.00 0.00 91 1021.1
20260831212912 64 0 0.0 0.0 0.00 0.00 0.00 90 1021.1
20260831212016 64 0 0.0 0.0 0.00 0.00 0.00 89 1021.1
20260831210903 65 0 0.0 0.0 0.00 0.00 0.00 88 1021.1
20260831210005 65 0 0.0 0.0 0.00 0.00 0.00 88 1021.1
20260831205404 65 0 0.0 0.0 0.00 0.00 0.00 88 1021.1
20260831204505 66 0 0.0 0.0 0.00 0.00 0.00 86 1021.1
20260831203603 66 0 0.0 0.0 0.00 0.00 0.00 86 1021.1
20260831202703 66 0 0.0 0.0 0.00 0.00 0.00 85 1021.1
20260831202016 67 0 0.0 0.0 0.00 0.00 0.00 84 1021.1
20260831200905 67 0 0.0 0.0 0.00 0.00 0.00 84 1021.1
20260831200003 68 0 0.0 0.0 0.00 0.00 0.00 83 1021.1
20260831195403 68 0 0.0 0.0 0.00 0.00 0.00 83 1021.1
20260831194503 68 0 0.0 0.0 0.00 0.00 0.00 82 1021.1
20260831193606 69 0 0.0 0.0 0.00 0.00 0.00 82 1021.1
20260831192914 69 0 0.0 0.0 0.00 0.00 0.00 81 1021.1
20260831191803 69 0 0.0 0.0 0.00 0.00 0.00 81 1021.1
20260831191112 70 0 0.0 0.0 0.00 0.00 0.00 80 1021.1
20260831190005 70 0 0.0 0.0 0.00 0.00 0.00 80 1021.1
20260831185403 70 0 0.0 0.0 0.00 0.00 0.00 79 1021.1
20260831184713 70 0 0.0 0.0 0.00 0.00 0.00 79 1021.1
20260831183603 71 0 0.0 0.0 0.00 0.00 0.00 78 1021.1
20260831182705 71 0 0.0 0.0 0.00 0.00 0.00 77 1021.1
20260831181803 71 0 0.0 0.0 0.00 0.00 0.00 76 1021.1
20260831180904 72 0 0.0 0.0 0.00 0.00 0.00 75 1021.1
20260831180005 72 0 0.0 0.0 0.00 0.00 0.00 74 1021.1
20260831175613 72 0 0.0 0.0 0.00 0.00 0.00 74 1021.1
20260831174506 72 0 0.0 0.0 0.00 0.00 0.00 74 1021.1
20260831173603 73 0 0.0 0.0 0.00 0.00 0.00 73 1020.1
20260831172916 73 13 0.0 11.0 0.00 0.00 0.00 72 1020.1
20260831171803 74 0 0.0 0.0 0.00 0.00 0.00 71 1020.1
20260831170905 75 0 0.0 0.0 0.00 0.00 0.00 70 1021.1
20260831170005 76 238 0.0 5.0 0.00 0.00 0.00 69 1021.1
20260831165405 76 242 0.0 5.0 0.00 0.00 0.00 69 1021.1
20260831164714 76 0 0.0 0.0 0.00 0.00 0.00 69 1021.1
20260831163603 77 284 0.0 3.0 0.00 0.00 0.00 68 1021.1
20260831162703 78 315 0.0 2.0 0.00 0.00 0.00 68 1021.1
20260831161803 78 340 0.0 1.0 0.00 0.00 0.00 68 1021.1
20260831160905 78 315 0.0 1.0 0.00 0.00 0.00 68 1021.1
20260831160003 78 315 0.0 1.0 0.00 0.00 0.00 68 1021.1
20260831155404 80 234 1.0 2.0 0.00 0.00 0.00 67 1021.1
20260831154503 81 253 2.0 5.0 0.00 0.00 0.00 67 1021.1
20260831153603 80 271 0.0 5.0 0.00 0.00 0.00 67 1021.1
20260831152705 81 283 3.0 4.0 0.00 0.00 0.00 67 1021.1
20260831152013 81 291 0.0 6.0 0.00 0.00 0.00 68 1021.1
20260831151115 81 234 3.0 6.0 0.00 0.00 0.00 67 1021.1
20260831150003 81 280 0.0 3.0 0.00 0.00 0.00 68 1021.1
20260831145405 81 275 1.0 3.0 0.00 0.00 0.00 68 1021.1
20260831144503 82 301 0.0 5.0 0.00 0.00 0.00 68 1021.1
20260831143604 81 315 5.0 5.0 0.00 0.00 0.00 68 1021.1
20260831142705 81 237 0.0 4.0 0.00 0.00 0.00 68 1021.1
20260831141805 81 297 3.0 28.0 0.00 0.00 0.00 68 1021.1
20260831140903 80 312 4.0 28.0 0.00 0.00 0.00 69 1021.1
20260831140005 80 297 0.0 40.0 0.00 0.00 0.00 69 1021.1
20260831135403 81 313 0.0 40.0 0.00 0.00 0.00 68 1021.1
20260831134503 80 299 2.0 32.0 0.00 0.00 0.00 68 1021.1
20260831133603 81 326 32.0 32.0 0.00 0.00 0.00 68 1021.1
20260831132914 82 324 2.0 59.0 0.00 0.00 0.00 69 1021.1
20260831131803 82 316 15.0 15.0 0.00 0.00 0.00 70 1021.1
20260831130904 81 269 1.0 60.0 0.00 0.00 0.00 73 1021.1
20260831130213 80 225 0.0 3.0 0.00 0.00 0.00 74 1021.1
20260831125403 80 315 0.0 33.0 0.00 0.00 0.00 75 1021.1
20260831124503 80 315 0.0 25.0 0.00 0.00 0.00 76 1021.1
20260831123603 79 258 0.0 32.0 0.00 0.00 0.00 76 1021.1
20260831122705 79 211 0.0 42.0 0.00 0.00 0.00 78 1021.1
20260831122015 78 317 0.0 34.0 0.00 0.00 0.00 79 1021.1
20260831120903 76 277 0.0 53.0 0.00 0.00 0.00 81 1021.1
20260831120215 76 288 26.0 43.0 0.00 0.00 0.00 82 1021.1
20260831115404 74 282 0.0 9.0 0.00 0.00 0.00 84 1021.1
20260831114503 73 225 6.0 6.0 0.00 0.00 0.00 85 1021.1
20260831113603 73 0 0.0 0.0 0.00 0.00 0.00 85 1021.1
20260831112703 73 319 0.0 37.0 0.00 0.00 0.00 85 1021.1
20260831111805 74 330 3.0 44.0 0.00 0.00 0.00 85 1021.1
20260831110903 74 265 0.0 39.0 0.00 0.00 0.00 85 1021.1
20260831110005 73 263 0.0 39.0 0.00 0.00 0.00 86 1021.1
20260831105403 72 180 0.0 31.0 0.00 0.00 0.00 87 1021.1
20260831104503 71 0 0.0 0.0 0.00 0.00 0.00 89 1021.1
20260831103603 71 0 0.0 0.0 0.00 0.00 0.00 89 1021.1
20260831102704 72 202 0.0 15.0 0.00 0.00 0.00 87 1021.1
20260831101805 72 202 0.0 15.0 0.00 0.00 0.00 86 1021.1
20260831100905 72 0 0.0 0.0 0.00 0.00 0.00 86 1021.1
20260831100003 73 315 0.0 15.0 0.00 0.00 0.00 84 1021.1
20260831095403 74 315 0.0 15.0 0.00 0.00 0.00 83 1021.1
20260831094505 74 225 0.0 62.0 0.00 0.00 0.00 83 1021.1
20260831093603 74 0 0.0 0.0 0.00 0.00 0.00 85 1021.1
20260831092703 74 0 0.0 0.0 0.00 0.00 0.00 86 1021.1
20260831092013 74 315 0.0 69.0 0.00 0.00 0.00 86 1021.1
20260831090905 73 0 0.0 0.0 0.00 0.00 0.00 88 1021.1
20260831090006 73 0 0.0 0.0 0.00 0.00 0.00 89 1021.1
20260831085615 72 0 0.0 0.0 0.00 0.00 0.00 89 1021.1
20260831084503 72 315 71.0 71.0 0.00 0.00 0.00 91 1021.1
20260831083814 72 0 0.0 0.0 0.00 0.00 0.00 91 1021.1
20260831082914 71 0 0.0 0.0 0.00 0.00 0.00 93 1021.1
20260831082013 71 0 0.0 0.0 0.00 0.00 0.00 94 1020.1
20260831080905 70 0 0.0 0.0 0.00 0.00 0.00 97 1020.1
20260831080003 69 0 0.0 0.0 0.00 0.00 0.00 98 1020.1
20260831075404 69 0 0.0 0.0 0.00 0.00 0.00 98 1020.1
20260831074503 67 0 0.0 0.0 0.00 0.00 0.00 98 1020.1
20260831073605 67 0 0.0 0.0 0.00 0.00 0.00 98 1020.1
20260831072703 66 0 0.0 0.0 0.00 0.00 0.00 98 1020.1
20260831072013 66 0 0.0 0.0 0.00 0.00 0.00 98 1020.1
20260831070905 64 67 0.0 72.0 0.00 0.00 0.00 98 1020.1
20260831070003 62 0 0.0 0.0 0.00 0.00 0.00 98 1020.1
20260831065405 62 0 0.0 0.0 0.00 0.00 0.00 98 1020.1
20260831064505 61 0 0.0 0.0 0.00 0.00 0.00 98 1020.1
20260831063603 60 0 0.0 0.0 0.00 0.00 0.00 98 1020.1
20260831062703 60 0 0.0 0.0 0.00 0.00 0.00 98 1020.1
20260831061805 60 0 0.0 0.0 0.00 0.00 0.00 98 1020.1
20260831060903 59 0 0.0 0.0 0.00 0.00 0.00 98 1020.1
20260831060005 59 0 0.0 0.0 0.00 0.00 0.00 98 1020.1
20260831055405 59 0 0.0 0.0 0.00 0.00 0.00 98 1020.1
20260831054505 58 0 0.0 0.0 0.00 0.00 0.00 98 1020.1
20260831053603 58 0 0.0 0.0 0.00 0.00 0.00 98 1020.1
20260831052914 58 0 0.0 0.0 0.00 0.00 0.00 98 1020.1
20260831051803 58 0 0.0 0.0 0.00 0.00 0.00 98 1019.1
20260831050905 58 0 0.0 0.0 0.00 0.00 0.00 98 1019.1
20260831050003 58 0 0.0 0.0 0.00 0.00 0.00 98 1019.1
20260831045405 58 0 0.0 0.0 0.00 0.00 0.00 98 1019.1
20260831044503 58 0 0.0 0.0 0.00 0.00 0.00 98 1019.1
20260831043604 58 0 0.0 0.0 0.00 0.00 0.00 98 1019.1
20260831042703 58 0 0.0 0.0 0.00 0.00 0.00 98 1019.1
20260831041805 58 0 0.0 0.0 0.00 0.00 0.00 98 1019.1
20260831040906 58 0 0.0 0.0 0.00 0.00 0.00 98 1019.1
20260831040004 58 0 0.0 0.0 0.00 0.00 0.00 98 1019.1
20260831035403 59 0 0.0 0.0 0.00 0.00 0.00 98 1019.1
20260831034505 59 0 0.0 0.0 0.00 0.00 0.00 98 1019.1
20260831033605 59 0 0.0 0.0 0.00 0.00 0.00 98 1019.1
20260831032705 59 0 0.0 0.0 0.00 0.00 0.00 97 1019.1
20260831031803 59 0 0.0 0.0 0.00 0.00 0.00 97 1020.1
20260831030903 60 0 0.0 0.0 0.00 0.00 0.00 97 1020.1
20260831030005 60 0 0.0 0.0 0.00 0.00 0.00 96 1020.1
20260831025403 60 0 0.0 0.0 0.00 0.00 0.00 96 1019.1
20260831024713 60 0 0.0 0.0 0.00 0.00 0.00 96 1019.1
20260831023603 60 0 0.0 0.0 0.00 0.00 0.00 96 1020.1
20260831022703 61 0 0.0 0.0 0.00 0.00 0.00 95 1020.1
20260831021805 61 0 0.0 0.0 0.00 0.00 0.00 95 1020.1
20260831021114 61 0 0.0 0.0 0.00 0.00 0.00 94 1020.1
20260831020005 61 0 0.0 0.0 0.00 0.00 0.00 94 1020.1
20260831015403 62 0 0.0 0.0 0.00 0.00 0.00 94 1020.1
20260831014503 62 0 0.0 0.0 0.00 0.00 0.00 93 1020.1
20260831013603 62 0 0.0 0.0 0.00 0.00 0.00 93 1020.1
20260831012913 62 0 0.0 0.0 0.00 0.00 0.00 93 1020.1
20260831011805 63 0 0.0 0.0 0.00 0.00 0.00 92 1020.1
20260831010904 63 0 0.0 0.0 0.00 0.00 0.00 92 1020.1
20260831010003 63 0 0.0 0.0 0.00 0.00 0.00 92 1020.1
20260831005403 64 0 0.0 0.0 0.00 0.00 0.00 91 1020.1
20260831004504 64 0 0.0 0.0 0.00 0.00 0.00 91 1020.1
20260831003813 64 0 0.0 0.0 0.00 0.00 0.00 90 1020.1
20260831002913 64 0 0.0 0.0 0.00 0.00 0.00 90 1020.1
20260831001803 64 0 0.0 0.0 0.00 0.00 0.00 89 1020.1
20260831000903 65 0 0.0 0.0 0.00 0.00 0.00 88 1020.1
20260831000005 65 0 0.0 0.0 0.00 0.00 0.00 87 1020.1
20260830235403 66 0 0.0 0.0 0.00 0.00 0.00 87 1020.1
20260830234504 66 0 0.0 0.0 0.00 0.00 0.00 86 1020.1
20260830233603 67 0 0.0 0.0 0.00 0.00 0.00 85 1020.1
20260830232703 68 0 0.0 0.0 0.00 0.00 0.00 84 1020.1
20260830231803 68 0 0.0 0.0 0.00 0.00 0.00 84 1020.1